Regional Weather Roundup
Issued by NWS

Home | Current Version | Previous Version | Text Only | Print | Product List | Glossary Off
Versions: 1 2 3 4 5 6 7 8 9 10 11 12 13 14 15 16 17 18 19 20 21 22 23 24 25 26 27 28 29 30 31 32 33 34 35 36 37 38 39 40 41 42 43 44 45 46 47 48 49 50

000
ASUS43 KBIS 300401
RWRND

NORTH DAKOTA REGIONAL WEATHER ROUNDUP
NATIONAL WEATHER SERVICE BISMARCK ND
1100 PM CDT SUN MAR 29 2015

NOTE: "FAIR" INDICATES FEW OR NO CLOUDS BELOW 12,000 FEET WITH NO
SIGNIFICANT WEATHER AND/OR OBSTRUCTIONS TO VISIBILITY.


NDZ001>003-009>011-017-300500-
NORTHWEST NORTH DAKOTA

CITY           SKY/WX    TMP DP  RH WIND       PRES   REMARKS
WILLISTON      PTCLDY    43  33  68 SW6       29.89F
MINOT          PTCLDY    41  31  67 SE3       29.89F
$$

NDZ018>021-031>035-040>046-300500-
SOUTHWEST NORTH DAKOTA

CITY           SKY/WX    TMP DP  RH WIND       PRES   REMARKS
BISMARCK       MOCLDY    39  29  67 CALM      29.96F
DICKINSON      CLOUDY    41  30  65 SW3       29.93F
GARRISON         N/A     41  32  70 CALM      29.91F
HETTINGER ARPT MOCLDY    36  29  75 CALM      29.99S
$$

NDZ004>008-012>016-024-026-027-054-300500-
NORTHEAST NORTH DAKOTA

CITY           SKY/WX    TMP DP  RH WIND       PRES   REMARKS
GRAND FORKS    CLEAR     33  27  78 W7        29.90S
DEVILS LAKE    CLEAR     36  28  75 CALM      29.91S
$$

NDZ022-023-025-028>030-036>039-047>053-300500-
SOUTHEAST NORTH DAKOTA

CITY           SKY/WX    TMP DP  RH WIND       PRES   REMARKS
FARGO          PTCLDY    40  28  62 SW8       29.92S
JAMESTOWN      MOCLDY    40  30  67 W8        29.94S
$$




USA.gov is the U.S. government's official web portal to all federal, state and local government web resources and services.